+ View the NASA Portal
+ Center for Near-Earth Object Studies
IMPORTANT:
The SSD Announcement email list is now available. Major changes are coming in the near future, including possible hostname and/or URL changes. To be notified of such changes, subscribe to this email list.
Please visit
this page
for more details.
Don't show this message again
JPL Small-Body Database Browser
Search:
[
help
]
146091 (2000 KN35)
Classification:
Main-belt Asteroid
SPK-ID:
2146091
[
Ephemeris
|
Orbit Diagram
|
Orbital Elements
|
Mission Design
|
Physical Parameters
|
Discovery Circumstances
|
Close-Approach Data
]
[ show orbit diagram ]
Orbital Elements at Epoch 2458600.5 (2019-Apr-27.0) TDB
Reference:
JPL 14
(heliocentric ecliptic J2000)
Element
Value
Uncertainty (1-sigma)
Units
e
.1116275857769827
4.9643e-08
a
2.641446540106598
2.5108e-08
au
q
2.346588239875535
1.326e-07
au
i
10.08664035605861
5.4993e-06
deg
node
102.5954747874413
4.2301e-05
deg
peri
178.5739902927947
5.5572e-05
deg
M
119.1363616769955
3.7815e-05
deg
t
p
2458081.576907828641
(2017-Nov-24.07690783)
0.00016492
TDB
period
1568.054543147608
4.29
2.2357e-05
6.121e-08
d
yr
n
.2295838506212673
3.2734e-09
deg/d
Q
2.936304840337662
2.791e-08
au
Orbit Determination Parameters
# obs. used (total)
320
data-arc span
6835 days (18.71 yr)
first obs. used
2000-05-05
last obs. used
2019-01-21
planetary ephem.
DE431
SB-pert. ephem.
SB431-N16
condition code
0
norm. resid. RMS
.57791
source
ORB
producer
Otto Matic
solution date
2019-Jul-13 09:56:50
Additional Information
Earth MOID
= 1.32955 au
Jupiter MOID
= 2.19571 au
T_jup
= 3.364
[ show covariance matrix ]
[
Ephemeris
|
Orbit Diagram
|
Orbital Elements
|
Mission Design
|
Physical Parameters
|
Discovery Circumstances
|
Close-Approach Data
]
Physical Parameter Table
Parameter
Symbol
Value
Units
Sigma
Reference
Notes
absolute magnitude
H
15.9
n/a
MPO366820
146091 (2000 KN35)
Discovered 2000-May-27 by LINEAR at Socorro
Reference:
20070106/Numbers.arc
Last Updated:
2007-01-09
[ show close-approach data ]
[
Ephemeris
|
Orbit Diagram
|
Orbital Elements
|
Mission Design
|
Physical Parameters
|
Discovery Circumstances
|
Close-Approach Data
]
2019-Dec-09 11:03 UT
(server date/time)
Site Manager:
Ryan S. Park
Webmaster
:
Alan B. Chamberlin